Location: Unspecified
(0.0000°N, 0.0000°E)
Time: 22:57:37
(UTC+02:00)

Cosmos 1125 Rocket - Visible Passes

Search period start: 26 April 2015 00:00
Search period end: 06 May 2015 00:00
Orbit: 759 x 780 km, 74.0° (Epoch: 25 April)

Date Brightness Start Highest point End Pass type
(mag) Time Alt. Az. Time Alt. Az. Time Alt. Az.
26 Apr 6.2 21:32:31 10° WNW 21:35:58 17° WSW 21:39:08 10° SW visible
27 Apr 5.3 20:54:34 10° NW 20:59:20 33° WSW 21:04:03 10° SSW visible
28 Apr 4.0 20:17:32 10° NNW 20:22:47 68° WSW 20:28:04 10° S visible
29 Apr 6.2 07:09:59 10° SSE 07:13:37 20° ESE 07:17:27 10° NE visible
30 Apr 6.3 20:48:20 10° WNW 20:51:44 16° WSW 20:54:51 10° SW visible
02 May 4.8 07:01:08 10° S 07:05:58 41° ESE 07:10:50 10° NNE visible
03 May 5.9 06:25:42 10° SSE 06:29:22 20° ESE 06:33:13 10° NE visible
04 May 3.8 07:29:48 10° SSW 07:34:46 45° WNW 07:39:41 10° N visible
05 May 3.5 06:53:02 10° S 06:58:15 86° ESE 07:03:26 10° NNE visible
